Time,TemperatureF,DewpointF,PressureIn,WindDirection,WindDirectionDegrees,WindSpeedMPH,WindSpeedGustMPH,Humidity,HourlyPrecipIn,Conditions,Clouds,dailyrainin,SoftwareType,DateUTC
2013-09-01 00:08:00,80.0,65.0,29.84,WSW,252,4.0,-999.0,61,-99.99,,,0.00,weatherlink.com 1.10,2013-09-01 06:08:00,
2013-09-01 00:23:00,80.2,65.0,29.84,WSW,248,0.0,-999.0,61,-99.99,,,0.00,weatherlink.com 1.10,2013-09-01 06:23:00,
2013-09-01 00:38:00,80.0,65.0,29.84,WSW,252,0.0,-999.0,61,-99.99,,,0.00,weatherlink.com 1.10,2013-09-01 06:38:00,
2013-09-01 00:53:00,79.5,65.0,29.84,WSW,252,0.0,-999.0,62,-99.99,,,0.00,weatherlink.com 1.10,2013-09-01 06:53:00,
2013-09-01 01:08:00,78.9,65.0,29.84,WSW,252,0.0,-999.0,63,-99.99,,,0.00,weatherlink.com 1.10,2013-09-01 07:08:00,
2013-09-01 01:23:00,78.5,65.0,29.85,WSW,252,0.0,-999.0,64,-99.99,,,0.00,weatherlink.com 1.10,2013-09-01 07:23:00,
2013-09-01 01:38:00,78.0,65.0,29.84,SSW,207,0.0,-999.0,65,-99.99,,,0.00,weatherlink.com 1.10,2013-09-01 07:38:00,
2013-09-01 01:53:00,77.6,66.0,29.85,SSW,213,0.0,-999.0,67,-99.99,,,0.00,weatherlink.com 1.10,2013-09-01 07:53:00,
2013-09-01 02:08:00,77.3,66.0,29.85,SSW,213,0.0,-999.0,68,-99.99,,,0.00,weatherlink.com 1.10,2013-09-01 08:08:00,
2013-09-01 02:23:00,76.8,66.0,29.85,SSW,213,0.0,-999.0,69,-99.99,,,0.00,weatherlink.com 1.10,2013-09-01 08:23:00,
2013-09-01 02:38:00,76.4,66.0,29.85,SSW,213,0.0,-999.0,70,-99.99,,,0.00,weatherlink.com 1.10,2013-09-01 08:38:00,
2013-09-01 02:53:00,75.9,66.0,29.85,SSW,213,0.0,-999.0,71,-99.99,,,0.00,weatherlink.com 1.10,2013-09-01 08:53:00,
2013-09-01 03:08:00,75.5,66.0,29.85,SSW,213,0.0,-999.0,73,-99.99,,,0.00,weatherlink.com 1.10,2013-09-01 09:08:00,
2013-09-01 03:23:00,75.1,66.0,29.85,SSW,213,0.0,-999.0,74,-99.99,,,0.00,weatherlink.com 1.10,2013-09-01 09:23:00,
2013-09-01 03:38:00,74.7,66.0,29.85,SSW,213,0.0,-999.0,75,-99.99,,,0.00,weatherlink.com 1.10,2013-09-01 09:38:00,
2013-09-01 03:53:00,74.4,66.0,29.85,SSW,213,0.0,-999.0,76,-99.99,,,0.00,weatherlink.com 1.10,2013-09-01 09:53:00,
2013-09-01 04:08:00,74.1,66.0,29.85,SSW,213,0.0,-999.0,77,-99.99,,,0.00,weatherlink.com 1.10,2013-09-01 10:08:00,
2013-09-01 04:23:00,73.7,66.0,29.85,SSW,213,0.0,-999.0,78,-99.99,,,0.00,weatherlink.com 1.10,2013-09-01 10:23:00,
2013-09-01 04:38:00,73.5,66.0,29.85,SSW,213,0.0,-999.0,78,-99.99,,,0.00,weatherlink.com 1.10,2013-09-01 10:38:00,
2013-09-01 04:53:00,73.2,66.0,29.86,SSW,213,0.0,-999.0,79,-99.99,,,0.00,weatherlink.com 1.10,2013-09-01 10:53:00,
2013-09-01 05:08:00,73.0,67.0,29.85,SSW,213,0.0,-999.0,80,-99.99,,,0.00,weatherlink.com 1.10,2013-09-01 11:08:00,
2013-09-01 05:23:00,72.8,67.0,29.86,SSW,213,0.0,-999.0,81,-99.99,,,0.00,weatherlink.com 1.10,2013-09-01 11:23:00,
2013-09-01 05:38:00,72.6,67.0,29.86,SSW,213,0.0,-999.0,81,-99.99,,,0.00,weatherlink.com 1.10,2013-09-01 11:38:00,
2013-09-01 05:53:00,72.4,67.0,29.86,SSW,213,0.0,-999.0,82,-99.99,,,0.00,weatherlink.com 1.10,2013-09-01 11:53:00,
2013-09-01 06:07:00,72.2,67.0,29.87,SSW,213,0.0,-999.0,83,-99.99,,,0.00,weatherlink.com 1.10,2013-09-01 12:07:00,
2013-09-01 06:23:00,72.0,67.0,29.88,SSW,213,0.0,-999.0,83,-99.99,,,0.00,weatherlink.com 1.10,2013-09-01 12:23:00,
2013-09-01 06:38:00,72.0,67.0,29.88,SSW,213,0.0,-999.0,84,-99.99,,,0.00,weatherlink.com 1.10,2013-09-01 12:38:00,
2013-09-01 06:53:00,72.2,67.0,29.88,SSW,213,0.0,-999.0,84,-99.99,,,0.00,weatherlink.com 1.10,2013-09-01 12:53:00,
2013-09-01 07:08:00,72.8,68.0,29.88,SSW,213,0.0,-999.0,85,-99.99,,,0.00,weatherlink.com 1.10,2013-09-01 13:08:00,
2013-09-01 07:23:00,74.0,69.0,29.88,SW,232,0.0,-999.0,84,-99.99,,,0.00,weatherlink.com 1.10,2013-09-01 13:23:00,
2013-09-01 07:38:00,75.2,69.0,29.88,SW,226,0.0,-999.0,82,-99.99,,,0.00,weatherlink.com 1.10,2013-09-01 13:38:00,
2013-09-01 07:53:00,75.8,70.0,29.88,SW,227,1.0,-999.0,81,-99.99,,,0.00,weatherlink.com 1.10,2013-09-01 13:53:00,
2013-09-01 08:08:00,77.1,70.0,29.88,SW,226,0.0,-999.0,78,-99.99,,,0.00,weatherlink.com 1.10,2013-09-01 14:08:00,
2013-09-01 08:23:00,78.0,70.0,29.89,SW,224,0.0,-999.0,76,-99.99,,,0.00,weatherlink.com 1.10,2013-09-01 14:23:00,
2013-09-01 08:38:00,79.1,71.0,29.89,SW,224,0.0,-999.0,75,-99.99,,,0.00,weatherlink.com 1.10,2013-09-01 14:38:00,
2013-09-01 08:53:00,80.3,71.0,29.89,SW,225,0.0,-999.0,72,-99.99,,,0.00,weatherlink.com 1.10,2013-09-01 14:53:00,
2013-09-01 09:08:00,81.8,70.0,29.89,SW,229,1.0,-999.0,68,-99.99,,,0.00,weatherlink.com 1.10,2013-09-01 15:08:00,
2013-09-01 09:23:00,83.0,70.0,29.89,WNW,294,0.0,-999.0,64,-99.99,,,0.00,weatherlink.com 1.10,2013-09-01 15:23:00,
2013-09-01 09:38:00,84.0,70.0,29.89,South,182,0.0,-999.0,62,-99.99,,,0.00,weatherlink.com 1.10,2013-09-01 15:38:00,
2013-09-01 09:53:00,85.3,69.0,29.90,WSW,238,0.0,-999.0,59,-99.99,,,0.00,weatherlink.com 1.10,2013-09-01 15:53:00,
2013-09-01 10:08:00,87.1,69.0,29.89,East,99,0.0,-999.0,56,-99.99,,,0.00,weatherlink.com 1.10,2013-09-01 16:08:00,
2013-09-01 10:23:00,88.2,69.0,29.90,ESE,109,0.0,-999.0,54,-99.99,,,0.00,weatherlink.com 1.10,2013-09-01 16:23:00,
2013-09-01 10:38:00,89.5,70.0,29.89,SE,131,0.0,-999.0,53,-99.99,,,0.00,weatherlink.com 1.10,2013-09-01 16:38:00,
2013-09-01 10:53:00,90.5,69.0,29.89,WSW,242,0.0,-999.0,49,-99.99,,,0.00,weatherlink.com 1.10,2013-09-01 16:53:00,
2013-09-01 11:08:00,90.8,69.0,29.89,NNE,28,1.0,-999.0,49,-99.99,,,0.00,weatherlink.com 1.10,2013-09-01 17:08:00,
2013-09-01 11:23:00,91.9,68.0,29.87,SE,139,0.0,-999.0,45,-99.99,,,0.00,weatherlink.com 1.10,2013-09-01 17:23:00,
2013-09-01 11:38:00,92.2,67.0,29.87,SE,132,0.0,-999.0,44,-99.99,,,0.00,weatherlink.com 1.10,2013-09-01 17:38:00,
2013-09-01 11:53:00,92.9,68.0,29.86,SE,128,0.0,-999.0,44,-99.99,,,0.00,weatherlink.com 1.10,2013-09-01 17:53:00,
2013-09-01 12:08:00,93.5,68.0,29.86,ESE,109,0.0,-999.0,44,-99.99,,,0.00,weatherlink.com 1.10,2013-09-01 18:08:00,
2013-09-01 12:23:00,94.0,68.0,29.86,East,88,1.0,-999.0,42,-99.99,,,0.00,weatherlink.com 1.10,2013-09-01 18:23:00,
2013-09-01 12:38:00,94.6,68.0,29.85,SE,131,0.0,-999.0,42,-99.99,,,0.00,weatherlink.com 1.10,2013-09-01 18:38:00,
2013-09-01 12:53:00,95.2,67.0,29.85,ESE,119,1.0,-999.0,40,-99.99,,,0.00,weatherlink.com 1.10,2013-09-01 18:53:00,
2013-09-01 13:08:00,94.9,66.0,29.85,SE,126,1.0,-999.0,39,-99.99,,,0.00,weatherlink.com 1.10,2013-09-01 19:08:00,
2013-09-01 13:23:00,95.4,67.0,29.84,NW,312,0.0,-999.0,39,-99.99,,,0.00,weatherlink.com 1.10,2013-09-01 19:23:00,
2013-09-01 13:38:00,95.6,65.0,29.83,SE,143,1.0,-999.0,37,-99.99,,,0.00,weatherlink.com 1.10,2013-09-01 19:38:00,
2013-09-01 13:53:00,96.4,66.0,29.82,SE,126,2.0,-999.0,37,-99.99,,,0.00,weatherlink.com 1.10,2013-09-01 19:53:00,
2013-09-01 14:08:00,97.6,66.0,29.82,ENE,59,0.0,-999.0,36,-99.99,,,0.00,weatherlink.com 1.10,2013-09-01 20:08:00,
2013-09-01 14:23:00,96.9,65.0,29.81,ESE,118,1.0,-999.0,35,-99.99,,,0.00,weatherlink.com 1.10,2013-09-01 20:23:00,
2013-09-01 14:38:00,97.3,65.0,29.80,SSE,151,0.0,-999.0,35,-99.99,,,0.00,weatherlink.com 1.10,2013-09-01 20:38:00,
2013-09-01 14:53:00,96.8,65.0,29.80,SE,125,3.0,-999.0,35,-99.99,,,0.00,weatherlink.com 1.10,2013-09-01 20:53:00,
2013-09-01 15:08:00,98.2,66.0,29.80,SE,132,0.0,-999.0,35,-99.99,,,0.00,weatherlink.com 1.10,2013-09-01 21:08:00,
2013-09-01 15:23:00,98.0,65.0,29.79,ENE,63,6.0,-999.0,34,-99.99,,,0.00,weatherlink.com 1.10,2013-09-01 21:23:00,
2013-09-01 15:38:00,97.0,65.0,29.80,SE,128,0.0,-999.0,35,-99.99,,,0.00,weatherlink.com 1.10,2013-09-01 21:38:00,
2013-09-01 15:53:00,96.4,64.0,29.79,ESE,104,0.0,-999.0,34,-99.99,,,0.00,weatherlink.com 1.10,2013-09-01 21:53:00,
2013-09-01 16:08:00,97.3,65.0,29.79,ESE,121,3.0,-999.0,35,-99.99,,,0.00,weatherlink.com 1.10,2013-09-01 22:08:00,
2013-09-01 16:23:00,95.6,65.0,29.79,SE,130,1.0,-999.0,36,-99.99,,,0.00,weatherlink.com 1.10,2013-09-01 22:23:00,
2013-09-01 16:38:00,94.5,64.0,29.79,East,99,0.0,-999.0,36,-99.99,,,0.00,weatherlink.com 1.10,2013-09-01 22:38:00,
2013-09-01 16:53:00,94.7,66.0,29.79,ESE,121,3.0,-999.0,39,-99.99,,,0.00,weatherlink.com 1.10,2013-09-01 22:53:00,
2013-09-01 17:08:00,96.0,66.0,29.79,SE,124,0.0,-999.0,37,-99.99,,,0.00,weatherlink.com 1.10,2013-09-01 23:08:00,
2013-09-01 17:23:00,94.6,65.0,29.78,ESE,120,0.0,-999.0,37,-99.99,,,0.00,weatherlink.com 1.10,2013-09-01 23:23:00,
2013-09-01 17:38:00,93.8,65.0,29.79,ESE,115,0.0,-999.0,38,-99.99,,,0.00,weatherlink.com 1.10,2013-09-01 23:38:00,
2013-09-01 17:53:00,93.5,65.0,29.79,ESE,118,0.0,-999.0,39,-99.99,,,0.00,weatherlink.com 1.10,2013-09-01 23:53:00,
2013-09-01 18:08:00,93.2,65.0,29.79,SE,127,0.0,-999.0,39,-99.99,,,0.00,weatherlink.com 1.10,2013-09-02 00:08:00,
2013-09-01 18:23:00,92.6,64.0,29.79,East,90,0.0,-999.0,39,-99.99,,,0.00,weatherlink.com 1.10,2013-09-02 00:23:00,
2013-09-01 18:38:00,91.9,64.0,29.79,ESE,118,0.0,-999.0,40,-99.99,,,0.00,weatherlink.com 1.10,2013-09-02 00:38:00,
2013-09-01 18:53:00,91.1,64.0,29.79,SE,127,0.0,-999.0,41,-99.99,,,0.00,weatherlink.com 1.10,2013-09-02 00:53:00,
2013-09-01 19:08:00,90.4,64.0,29.80,SE,133,0.0,-999.0,42,-99.99,,,0.00,weatherlink.com 1.10,2013-09-02 01:08:00,
2013-09-01 19:23:00,89.7,64.0,29.80,ESE,109,0.0,-999.0,42,-99.99,,,0.00,weatherlink.com 1.10,2013-09-02 01:23:00,
2013-09-01 19:38:00,89.0,64.0,29.81,ESE,109,0.0,-999.0,43,-99.99,,,0.00,weatherlink.com 1.10,2013-09-02 01:38:00,
2013-09-01 19:53:00,88.4,64.0,29.82,ESE,109,0.0,-999.0,44,-99.99,,,0.00,weatherlink.com 1.10,2013-09-02 01:53:00,
2013-09-01 20:08:00,87.6,64.0,29.82,ESE,109,0.0,-999.0,45,-99.99,,,0.00,weatherlink.com 1.10,2013-09-02 02:08:00,
2013-09-01 20:23:00,86.9,64.0,29.83,ESE,109,0.0,-999.0,47,-99.99,,,0.00,weatherlink.com 1.10,2013-09-02 02:23:00,
2013-09-01 20:38:00,86.2,64.0,29.84,ESE,109,0.0,-999.0,48,-99.99,,,0.00,weatherlink.com 1.10,2013-09-02 02:38:00,
2013-09-01 20:53:00,85.1,64.0,29.85,ESE,109,0.0,-999.0,50,-99.99,,,0.00,weatherlink.com 1.10,2013-09-02 02:53:00,
2013-09-01 21:08:00,83.9,64.0,29.85,ESE,109,0.0,-999.0,52,-99.99,,,0.00,weatherlink.com 1.10,2013-09-02 03:08:00,
2013-09-01 21:23:00,83.0,64.0,29.85,ESE,109,0.0,-999.0,53,-99.99,,,0.00,weatherlink.com 1.10,2013-09-02 03:23:00,
2013-09-01 21:38:00,82.1,64.0,29.85,ESE,109,0.0,-999.0,55,-99.99,,,0.00,weatherlink.com 1.10,2013-09-02 03:38:00,
2013-09-01 21:53:00,81.2,64.0,29.85,ESE,109,0.0,-999.0,57,-99.99,,,0.00,weatherlink.com 1.10,2013-09-02 03:53:00,
2013-09-01 22:08:00,80.3,65.0,29.86,ESE,109,0.0,-999.0,59,-99.99,,,0.00,weatherlink.com 1.10,2013-09-02 04:08:00,
2013-09-01 22:23:00,79.4,64.0,29.86,ESE,109,0.0,-999.0,60,-99.99,,,0.00,weatherlink.com 1.10,2013-09-02 04:23:00,
2013-09-01 22:38:00,78.7,64.0,29.86,ESE,109,0.0,-999.0,61,-99.99,,,0.00,weatherlink.com 1.10,2013-09-02 04:38:00,
2013-09-01 22:53:00,78.2,64.0,29.86,ESE,109,0.0,-999.0,62,-99.99,,,0.00,weatherlink.com 1.10,2013-09-02 04:53:00,
2013-09-01 23:08:00,77.6,64.0,29.87,ESE,109,0.0,-999.0,63,-99.99,,,0.00,weatherlink.com 1.10,2013-09-02 05:08:00,
2013-09-01 23:23:00,77.2,65.0,29.87,ESE,109,0.0,-999.0,65,-99.99,,,0.00,weatherlink.com 1.10,2013-09-02 05:23:00,
2013-09-01 23:38:00,76.8,64.0,29.88,ESE,109,0.0,-999.0,65,-99.99,,,0.00,weatherlink.com 1.10,2013-09-02 05:38:00,
2013-09-01 23:53:00,76.8,65.0,29.87,ESE,109,0.0,-999.0,66,-99.99,,,0.00,weatherlink.com 1.10,2013-09-02 05:53:00,